Content
SEND FEEDBACK

Daily
Averages
Monthly
Summary
United States of America

NORFOLK, VIRGINIA


Home > North America > United States > Virginia
Elevation: 14 feet     Latitude: 36 54N     Longitude: 076 12W

WEATHER
 
SELECT A DAY
Number of Records: 92,787;   Date Range: 1/1/95 - 9/30/14
 
SHARE

PRINT THIS DATA

[ ← Previous Day ]
WEATHER ALMANAC - FEBRUARY 8, 2014
[ Next Day → ]
[ °C ]   °F
Weather ElementAverageHighLow
Temperature35.1 °F39 °F (10:51 am)30.9 °F (1:51 am)
Dewpoint28.6 °F32 °F (3:51 am)24.1 °F (11:51 pm)
Humidity77.5 %89 % (1:51 am)70 % (2:51 pm)
Barometer30.23 in30.31 in (8:51 am)30.17 in (4:51 pm)
Wind Speed8.7 mph16.1 mph (2:51 pm)
Wind Gust21.9 mph (2:51 pm)
Weather ElementAverage
Visibility9 mi
Wind DirectionNNE (37 °)

Weather ElementTotal
Precipitation---
Heating Degree Days30.1 (Base 65)
Averaged from 23 records on February 8, 2014
WEATHER CONDITIONS BREAKOUT
WIND DIRECTION BREAKOUT
WEATHER BY HOUR - FEBRUARY 8, 2014
[ °C ]   °F
Local TimeTemperatureDewpointHumidityBarometerVisibilityWind DirectionWind SpeedGust SpeedPrecipitationEventsConditions
1:51 AM30.9 °F28.0 °F89 %30.29 in6.0 miCalmClear
2:51 AM33.1 °F30.0 °F89 %30.28 in6.0 miCalmClear
3:51 AM35.1 °F32.0 °F89 %30.27 in6.0 miCalmClear
4:51 AM36.0 °F32.0 °F86 %30.27 in10.0 miNorth (10°)8.1 mphClear
5:51 AM36.0 °F32.0 °F86 %30.28 in10.0 miNNE (30°)12.7 mphMostly Cloudy
6:51 AM36.0 °F32.0 °F86 %30.29 in8.0 miNNE (30°)11.5 mphOvercast
7:51 AM36.0 °F30.9 °F82 %30.29 in9.0 miNE (50°)9.2 mphOvercast
8:51 AM37.0 °F30.0 °F76 %30.31 in10.0 miNE (40°)12.7 mphMostly Cloudy
9:51 AM37.9 °F30.9 °F76 %30.27 in10.0 miNE (50°)9.2 mphPartly Cloudy
10:51 AM39.0 °F32.0 °F76 %30.25 in10.0 miENE (60°)9.2 mphClear
11:51 AM39.0 °F32.0 °F76 %30.25 in10.0 miNorth (10°)10.4 mphClear
12:51 PM37.9 °F30.9 °F76 %30.23 in10.0 miNNE (20°)10.4 mphClear
1:51 PM36.0 °F28.9 °F76 %30.20 in7.0 miNorth (10°)11.5 mphScattered Clouds
2:51 PM37.0 °F28.0 °F70 %30.19 in9.0 miNorth (10°)16.1 mph21.9 mphMostly Cloudy
3:51 PM36.0 °F27.0 °F70 %30.18 in9.0 miNorth (360°)12.7 mphClear
4:51 PM35.1 °F26.1 °F70 %30.17 in8.0 miNNE (20°)12.7 mphClear
5:51 PM34.0 °F26.1 °F73 %30.18 in8.0 miNorth (10°)9.2 mphClear
6:51 PM34.0 °F25.0 °F70 %30.18 in10.0 miNorth (10°)10.4 mphClear
7:51 PM33.1 °F25.0 °F72 %30.18 in10.0 miNorth (10°)10.4 mphPartly Cloudy
8:51 PM33.1 °F25.0 °F72 %30.18 in10.0 miNNE (20°)6.9 mphClear
9:51 PM32.0 °F25.0 °F75 %30.19 in10.0 miNE (50°)5.8 mphClear
10:51 PM32.0 °F25.0 °F75 %30.20 in10.0 miNNE (30°)6.9 mphClear
11:51 PM32.0 °F24.1 °F73 %30.19 in10.0 miNNE (20°)3.5 mphClear
Hourly data recorded from KORF, located miles away from Norfolk, Virginia







STORIES FROM OUR PARTNERS